D3121 Weather Reports


Display with metric or nautical units.
time (UTC)temp
F
wind
direction
speed
MPH
gust
MPH
rain 1hr
in
rain 24hr
in
rain mn
in
humidity
%
barometer
mb
20260905184316 67 68 3.0 5.0 0.00 0.00 0.00 80 1011.0
20260905183316 67 135 8.0 9.0 0.00 0.00 0.00 80 1010.9
20260905182315 69 113 6.0 9.0 0.00 0.00 0.00 77 1011.0
20260905181316 71 0 8.0 12.0 0.00 0.00 0.00 68 1010.8
20260905180315 70 23 4.0 9.0 0.00 0.00 0.00 68 1010.8
20260905175316 71 0 6.0 11.0 0.00 0.00 0.00 68 1010.8
20260905174315 70 0 5.0 9.0 0.00 0.00 0.00 67 1010.8
20260905173316 70 293 3.0 6.0 0.00 0.00 0.00 67 1010.8
20260905172315 70 0 7.0 11.0 0.00 0.00 0.00 66 1010.7
20260905171315 70 0 6.0 8.0 0.00 0.00 0.00 66 1010.6
20260905170316 70 23 7.0 11.0 0.00 0.00 0.00 66 1010.7
20260905165315 71 0 7.0 11.0 0.00 0.00 0.00 66 1010.8
20260905164318 70 0 5.0 8.0 0.00 0.00 0.00 65 1010.7
20260905163317 70 23 8.0 11.0 0.00 0.00 0.00 66 1010.8
20260905162318 70 0 6.0 9.0 0.00 0.00 0.00 68 1010.8
20260905161317 70 0 6.0 9.0 0.00 0.00 0.00 67 1011.0
20260905160316 70 23 6.0 9.0 0.00 0.00 0.00 68 1011.0
20260905155318 69 23 9.0 11.0 0.00 0.00 0.00 69 1010.9
20260905154315 69 23 6.0 11.0 0.00 0.00 0.00 70 1011.0
20260905153317 69 23 9.0 11.0 0.00 0.00 0.00 70 1011.0
20260905152315 69 0 8.0 13.0 0.00 0.00 0.00 70 1011.1
20260905151317 69 0 7.0 13.0 0.00 0.00 0.00 71 1011.1
20260905150317 68 0 6.0 10.0 0.00 0.00 0.00 72 1011.1
20260905145317 68 23 7.0 9.0 0.00 0.00 0.00 74 1011.2
20260905144317 67 0 4.0 10.0 0.00 0.00 0.00 74 1011.2
20260905143317 67 0 4.0 9.0 0.00 0.00 0.00 75 1011.3
20260905142317 67 23 4.0 6.0 0.00 0.00 0.00 76 1011.2
20260905141428 66 0 3.0 4.0 0.00 0.00 0.00 77 1011.0
20260905140415 67 0 8.0 12.0 0.00 0.00 0.00 77 1011.3
20260905135417 66 0 3.0 7.0 0.00 0.00 0.00 78 1011.2
20260905134417 66 23 9.0 11.0 0.00 0.00 0.00 79 1011.1
20260905133415 65 0 5.0 7.0 0.00 0.00 0.00 80 1010.9
20260905132417 65 0 6.0 11.0 0.00 0.00 0.00 82 1010.8
20260905131415 65 0 5.0 7.0 0.00 0.00 0.00 83 1010.9
20260905130437 64 23 4.0 6.0 0.00 0.00 0.00 84 1010.7
20260905125415 64 23 6.0 8.0 0.00 0.00 0.00 83 1010.8
20260905124417 65 0 6.0 8.0 0.00 0.00 0.00 84 1010.8
20260905123418 64 23 6.0 10.0 0.00 0.00 0.00 85 1010.7
20260905122417 64 0 9.0 12.0 0.00 0.00 0.00 84 1010.6
20260905121417 64 0 3.0 7.0 0.00 0.00 0.00 86 1010.5
20260905120417 64 0 4.0 7.0 0.00 0.00 0.00 86 1010.5
20260905115417 64 0 5.0 8.0 0.00 0.00 0.00 86 1010.7
20260905114417 63 315 2.0 4.0 0.00 0.00 0.00 87 1010.7
20260905113418 63 23 4.0 6.0 0.00 0.00 0.00 88 1010.5
20260905112417 62 0 2.0 3.0 0.00 0.00 0.00 90 1010.4
20260905111437 62 0.0 1.0 0.00 0.00 0.00 91 1010.4
20260905110417 61 338 1.0 2.0 0.00 0.00 0.00 91 1010.3
20260905105417 61 0.0 1.0 0.00 0.00 0.00 92 1010.3
20260905104417 61 293 2.0 3.0 0.00 0.00 0.00 92 1010.2
20260905103417 61 0.0 0.0 0.00 0.00 0.00 92 1010.2
20260905102437 61 0.0 0.0 0.00 0.00 0.00 92 1010.2
20260905101417 60 0.0 0.0 0.00 0.00 0.00 93 1010.0
20260905100417 60 0.0 0.0 0.00 0.00 0.00 94 1009.9
20260905095417 60 0.0 0.0 0.00 0.00 0.00 94 1009.9
20260905094417 59 293 1.0 2.0 0.00 0.00 0.00 94 1009.8
20260905093415 59 270 1.0 3.0 0.00 0.00 0.00 95 1009.8
20260905092417 59 0.0 0.0 0.00 0.00 0.00 94 1009.8
20260905091419 59 0.0 0.0 0.00 0.00 0.00 94 1009.7
20260905090417 59 0.0 0.0 0.00 0.00 0.00 94 1009.8
20260905085417 59 0.0 0.0 0.00 0.00 0.00 94 1009.7
20260905084417 59 0.0 0.0 0.00 0.00 0.00 94 1009.6
20260905083417 59 0.0 0.0 0.00 0.00 0.00 94 1009.6
20260905082417 59 0.0 0.0 0.00 0.00 0.00 94 1009.6
20260905081458 59 0.0 0.0 0.00 0.00 0.00 94 1009.7
20260905080417 59 0.0 0.0 0.00 0.00 0.00 93 1009.6
20260905075417 59 0.0 0.0 0.00 0.00 0.00 93 1009.6
20260905074417 59 0.0 0.0 0.00 0.00 0.00 93 1009.7
20260905073437 60 0.0 0.0 0.00 0.00 0.00 93 1009.8
20260905072417 60 0.0 0.0 0.00 0.00 0.00 93 1009.8
20260905071417 60 0.0 0.0 0.00 0.00 0.00 92 1009.9
20260905070417 60 0.0 0.0 0.00 0.00 0.00 92 1010.1
20260905065417 60 0.0 0.0 0.00 0.00 0.00 92 1010.2
20260905064417 61 0.0 0.0 0.00 0.00 0.00 91 1010.2
20260905063417 61 0.0 0.0 0.00 0.00 0.00 91 1010.2
20260905062417 61 0.0 0.0 0.00 0.00 0.00 91 1010.2
20260905061417 61 0.0 0.0 0.00 0.00 0.00 89 1010.2
20260905060417 62 0.0 0.0 0.00 0.00 0.00 89 1010.2
20260905055417 62 0.0 1.0 0.00 0.00 0.00 88 1010.2
20260905054417 62 0.0 0.0 0.00 0.00 0.00 87 1010.1
20260905053437 62 0.0 1.0 0.00 0.00 0.00 87 1010.1
20260905052417 63 0.0 0.0 0.00 0.00 0.00 86 1010.3
20260905051417 63 0.0 0.0 0.00 0.00 0.00 86 1010.2
20260905050437 63 0 1.0 2.0 0.00 0.00 0.00 86 1010.5
20260905045418 63 270 1.0 2.0 0.00 0.00 0.00 85 1010.3
20260905044417 63 270 1.0 1.0 0.00 0.00 0.00 85 1010.4
20260905043457 63 0.0 0.0 0.00 0.00 0.00 84 1010.3
20260905042417 64 0.0 0.0 0.00 0.00 0.00 83 1010.4
20260905041417 64 0.0 0.0 0.00 0.00 0.00 83 1010.3
20260905040437 65 0.0 0.0 0.00 0.00 0.00 82 1010.3
20260905035416 65 0.0 0.0 0.00 0.00 0.00 81 1010.1
20260905034416 66 158 1.0 2.0 0.00 0.00 0.00 80 1010.5
20260905033416 66 113 4.0 6.0 0.00 0.00 0.00 80 1010.4
20260905032416 66 45 1.0 2.0 0.00 0.00 0.00 79 1010.4
20260905031416 66 68 1.0 2.0 0.00 0.00 0.00 78 1010.3
20260905030416 67 0.0 1.0 0.00 0.00 0.00 77 1010.1
20260905025416 67 0 1.0 2.0 0.00 0.00 0.00 77 1009.9
20260905024436 67 0 3.0 6.0 0.00 0.00 0.00 77 1010.1
20260905023416 67 338 2.0 5.0 0.00 0.00 0.00 77 1010.2
20260905022416 67 293 2.0 4.0 0.00 0.00 0.00 78 1010.3
20260905021416 67 270 2.0 3.0 0.00 0.00 0.00 77 1010.4
20260905020416 67 270 2.0 4.0 0.00 0.00 0.00 76 1010.4
20260905015416 67 0 3.0 7.0 0.00 0.00 0.00 76 1010.4
20260905014416 67 0 3.0 6.0 0.00 0.00 0.00 76 1010.5
20260905013416 67 23 1.0 2.0 0.00 0.00 0.00 75 1010.5
20260905012416 67 0 3.0 7.0 0.00 0.00 0.00 76 1010.6
20260905011436 67 0 3.0 5.0 0.00 0.00 0.00 75 1010.6
20260905010416 68 293 2.0 4.0 0.00 0.00 0.00 75 1010.5
20260905005416 68 0 4.0 7.0 0.00 0.00 0.00 74 1010.6
20260905004416 68 0 4.0 7.0 0.00 0.00 0.00 75 1010.7
20260905003436 67 270 2.0 5.0 0.00 0.00 0.00 77 1010.7
20260905002436 67 0 1.0 3.0 0.00 0.00 0.00 77 1010.5
20260905001416 67 0.0 1.0 0.00 0.00 0.00 78 1010.3
20260905000417 67 0 3.0 6.0 0.00 0.00 0.00 79 1010.2
20260904235416 67 0 1.0 3.0 0.00 0.00 0.00 78 1010.2
20260904234436 68 0.0 0.0 0.00 0.00 0.00 75 1010.2
20260904232416 69 0 1.0 2.0 0.00 0.00 0.00 73 1009.9
20260904231416 69 338 1.0 2.0 0.00 0.00 0.00 72 1009.8
20260904230416 70 338 2.0 4.0 0.00 0.00 0.00 71 1009.9
20260904225416 70 248 1.0 2.0 0.00 0.00 0.00 69 1009.9
20260904224416 70 338 1.0 1.0 0.00 0.00 0.00 69 1009.9
20260904223436 71 0 1.0 4.0 0.00 0.00 0.00 68 1009.9
20260904222416 71 0 3.0 5.0 0.00 0.00 0.00 68
20260904221416 71 315 2.0 4.0 0.00 0.00 0.00 66
20260904220416 72 270 3.0 7.0 0.00 0.00 0.00 65
20260904215416 72 315 4.0 7.0 0.00 0.00 0.00 66
20260904214416 73 23 5.0 7.0 0.00 0.00 0.00 64
20260904213416 73 0 5.0 9.0 0.00 0.00 0.00 63
20260904212416 73 23 3.0 5.0 0.00 0.00 0.00 62
20260904211416 73 248 4.0 9.0 0.00 0.00 0.00 61
20260904210416 73 0 7.0 10.0 0.00 0.00 0.00 60
20260904205416 74 23 7.0 10.0 0.00 0.00 0.00 59
20260904204416 74 23 5.0 10.0 0.00 0.00 0.00 59
20260904203416 74 0 3.0 7.0 0.00 0.00 0.00 60
20260904202416 74 0 3.0 5.0 0.00 0.00 0.00 59
20260904201416 74 23 10.0 14.0 0.00 0.00 0.00 55
20260904200456 75 0 10.0 15.0 0.00 0.00 0.00 59
20260904195416 75 0 5.0 10.0 0.00 0.00 0.00 57
20260904194416 75 0 4.0 7.0 0.00 0.00 0.00 58
20260904193416 74 0 8.0 10.0 0.00 0.00 0.00 59
20260904192416 75 270 4.0 9.0 0.00 0.00 0.00 57
20260904191456 75 293 4.0 8.0 0.00 0.00 0.00 57
20260904190416 75 0 6.0 10.0 0.00 0.00 0.00 58
20260904185415 74 0 4.0 7.0 0.00 0.00 0.00 60
20260904184416 75 0 8.0 14.0 0.00 0.00 0.00 60